This is the latest recevied weather packets stored in our database for station/object VK5KX. If no packets are shown the sender has not sent any weather packets the latest 10 day(s).
| Time | Temp. | Humidity | Pressure | Rain* | Wind** | Luminosity | Snow |
|---|---|---|---|---|---|---|---|
| 1777922110 | 12.78° C | 93% | 1021.3 hPa | 0 mm | - | - | - |
| 1777921210 | 12.78° C | 94% | 1021.2 hPa | 0 mm | - | - | - |
| 1777920309 | 13.33° C | 94% | 1021.2 hPa | 0.25 mm | - | - | - |
| 1777919409 | 13.33° C | 94% | 1021.1 hPa | 0.25 mm | - | - | - |
| 1777918513 | 13.33° C | 94% | 1020.9 hPa | 0.51 mm | - | - | - |
| 1777917609 | 13.33° C | 94% | 1021 hPa | 0.51 mm | - | - | - |
| 1777916707 | 13.33° C | 94% | 1020.9 hPa | 0.25 mm | - | - | - |
| 1777915807 | 13.33° C | 93% | 1021 hPa | 0.25 mm | - | - | - |
| 1777914907 | 13.33° C | 94% | 1021 hPa | 0 mm | - | - | - |
| 1777914006 | 13.33° C | 93% | 1021.2 hPa | 0 mm | - | - | - |
| 1777913103 | 12.78° C | 93% | 1021.3 hPa | 0 mm | - | - | - |
| 1777912260 | 12.78° C | 93% | 1021 hPa | 0 mm | - | - | - |
| 1777911368 | 12.78° C | 93% | 1021 hPa | 0 mm | - | - | - |
| 1777910469 | 12.22° C | 92% | 1021 hPa | 0 mm | - | - | - |
| 1777909558 | 12.78° C | 92% | 1020.9 hPa | 0 mm | - | - | - |
| 1777908683 | 12.22° C | 92% | 1021 hPa | 0 mm | - | - | - |
| 1777907755 | 12.22° C | 92% | 1021 hPa | 0 mm | - | - | - |
| 1777906862 | 12.22° C | 91% | 1020.7 hPa | 0 mm | - | - | - |
| 1777905951 | 12.22° C | 91% | 1020.6 hPa | 0 mm | - | - | - |
| 1777905049 | 12.78° C | 91% | 1020.7 hPa | 0 mm | - | - | - |
| 1777904146 | 12.78° C | 90% | 1020.6 hPa | 0 mm | - | - | - |
| 1777903247 | 13.33° C | 90% | 1020.6 hPa | 0 mm | - | - | - |
| 1777902353 | 13.33° C | 90% | 1020.5 hPa | 0 mm | - | - | - |
| 1777901442 | 13.33° C | 89% | 1020.4 hPa | 0 mm | - | - | - |
| 1777900541 | 13.89° C | 89% | 1020.4 hPa | 0 mm | - | - | - |
* Rain latest hour (hover to see other rain measurements)
** Current wind speed in m/s (hover to see current wind gust speed)